Weather in Oykas-Kibeki

Russia / Chuvash Republic     55°36′52″N   47°10′08″E
temp.,
°C
wind,
m/s
gust,
m/s
humid.,
%
clouds,
%
prec.,
mm/h
press.,
hPa
HPBL,
m
5 august, thu
thu500:00+16wnw347015 0.0 101462
03:00+16nw356472 0.0 1014116
06:00+15nw387668 0.0 1016192
09:00+21nw5752100 0.0 1016960
12:00+23nw5641100 0.0 10161984
15:00+24nw55388 0.0 10162376
18:00+21n36480 0.0 1017175
21:00+15n22541 0.0 101711
6 august, fri
fri600:00+14n116017 0.0 101810
03:00+13nne11620 0.0 101810
06:00+15ne116110 0.0 101845
09:00+21ene21465 0.0 1018518
12:00+24ene113833 0.0 10181353
15:00+25ne12375 0.0 10171822
18:00+22ese345291 0.0 101787
21:00+18se455471 0.0 101779
7 august, sat
sat700:00+18ese3550100 0.0 1017110
03:00+18ese365081 0.0 1017142
06:00+17ese3859100 0.0 1018220
09:00+20se4754100 0.0 1018543
12:00+25sse564066 0.0 10171078
15:00+25s254879 0.0 1017665
18:00+24ese23535 0.0 101667
21:00+19ese5106092 0.0 1017204
8 august, sun
sun800:00+17se5116097 0.0 1018273
03:00+17se496092 0.0 1019215
06:00+16se4864100 0.0 1019211
09:00+22se575060 0.0 1019441
12:00+27sse553997 0.0 1019868
15:00+29sse453467 0.0 10191419
18:00+26ese354979 0.0 1019104
21:00+21se4853100 0.0 1020127
9 august, mon
mon900:00+20se41057100 0.0 1020167
03:00+19sse3959100 0.0 1020162
06:00+21w2355100 0.0 101861
09:00+23se1157100 0.0 101818
12:00+27ssw124696 0.0 1018432
15:00+29sw244110 0.0 1017903
18:00+27s224819 0.0 101633
21:00+22s22605 0.0 101712